Location: Unspecified
(64.9000°N, 0.0000°E)
Time: 06:38:40
(UTC+00:00)

Transit 2A Rocket - Pass Details

Date: 21 June 2019
Orbit: 593 x 910 km, 66.7° (Epoch: 12 October)

Event Time Altitude Azimuth Distance (km) Brightness Sun altitude
Rises 16:22:42 0° 291° (WNW) 3,463 9.2 31.6°
Reaches altitude 10° 16:25:16 10° 292° (WNW) 2,487 8.6 31.3°
Maximum altitude 16:31:02 88° 203° (SSW) 810 5.7 30.7°
Drops below altitude 10° 16:36:17 10° 116° (ESE) 2,273 7.1 30.1°
Sets 16:38:33 0° 116° (ESE) 3,145 7.7 29.9°
